TimePST,TemperatureF,Dew PointF,Humidity,Sea Level PressureIn,VisibilityMPH,Wind Direction,Wind SpeedMPH,Gust SpeedMPH,PrecipitationIn,Events,Conditions,WindDirDegrees,DateUTC
12:00 AM,43.5,40.3,88,29.72,-9999.0,SSE,32.2,38.0,N/A,,Unknown,150,2012-11-24 08:00:00
1:00 AM,43.5,40.3,88,29.74,-9999.0,SSE,33.4,39.1,N/A,,Unknown,150,2012-11-24 09:00:00
2:00 AM,44.1,41.2,90,29.75,-9999.0,SSE,33.4,-,N/A,,Unknown,150,2012-11-24 10:00:00
3:00 AM,44.6,41.0,87,29.77,-9999.0,SSE,31.1,-,N/A,,Unknown,150,2012-11-24 11:00:00
5:00 AM,45.1,41.7,88,29.78,-9999.0,SSE,33.4,40.3,N/A,,Unknown,160,2012-11-24 13:00:00
6:00 AM,45.3,42.1,88,29.79,-9999.0,South,32.2,-,0.01,,Unknown,170,2012-11-24 14:00:00
7:00 AM,46.4,41.9,84,29.81,-9999.0,South,33.4,-,N/A,,Unknown,180,2012-11-24 15:00:00
8:00 AM,46.4,41.9,84,29.82,-9999.0,South,33.4,39.1,N/A,,Unknown,180,2012-11-24 16:00:00
9:00 AM,46.2,41.7,84,29.84,-9999.0,South,34.5,40.3,N/A,,Unknown,180,2012-11-24 17:00:00
10:00 AM,46,42,79,29.86,,South,33.4,,,,,180,2012-11-24 18:00:00
10:00 AM,45.5,41.5,86,29.86,-9999.0,South,33.4,41.4,0.02,,Unknown,180,2012-11-24 18:00:00
11:00 AM,45.3,41.4,86,29.88,-9999.0,South,32.2,-,0.01,,Unknown,180,2012-11-24 19:00:00
12:00 PM,45.5,41.2,85,29.90,-9999.0,South,31.1,-,0.02,,Unknown,190,2012-11-24 20:00:00
1:00 PM,45.5,41.2,85,29.91,-9999.0,South,32.2,-,N/A,,Unknown,190,2012-11-24 21:00:00
2:00 PM,45.5,40.8,84,29.91,-9999.0,South,34.5,40.3,N/A,,Unknown,190,2012-11-24 22:00:00
3:00 PM,45.3,41.4,86,29.93,-9999.0,South,33.4,-,0.01,,Unknown,190,2012-11-24 23:00:00
4:00 PM,45,42,83,29.94,,SSW,27.6,,,,,200,2012-11-25 00:00:00
4:00 PM,45.1,41.5,87,29.94,-9999.0,SSW,27.6,-,0.01,,Unknown,200,2012-11-25 00:00:00
5:00 PM,45.5,41.4,85,29.95,-9999.0,SSW,31.1,36.8,0.01,,Unknown,200,2012-11-25 01:00:00
6:00 PM,45.3,41.5,87,29.97,-9999.0,SSW,29.9,-,N/A,,Unknown,210,2012-11-25 02:00:00
7:00 PM,44.1,41.5,91,29.99,-9999.0,SW,27.6,-,0.03,,Unknown,220,2012-11-25 03:00:00
8:00 PM,44.4,41.7,90,30.02,-9999.0,SW,24.2,-,0.01,,Unknown,230,2012-11-25 04:00:00
9:00 PM,44.6,39.7,83,30.04,-9999.0,WSW,20.7,-,N/A,,Unknown,240,2012-11-25 05:00:00
10:00 PM,45,39,73,30.06,,WSW,17.3,,,,,240,2012-11-25 06:00:00
10:00 PM,44.6,39.2,81,30.06,-9999.0,WSW,17.3,-,N/A,,Unknown,240,2012-11-25 06:00:00
11:00 PM,44.8,38.7,79,30.10,-9999.0,WSW,11.5,-,N/A,,Unknown,250,2012-11-25 07:00:00